Location: New Greens
(51.7702°N, 0.3379°W)
Time: 10:48:10
(UTC+00:00)

Envisat - Pass Details

Date: 26 January 2019
Orbit: 764 x 766 km, 98.2° (Epoch: 22 April)

Event Time Altitude Azimuth Distance (km) Brightness Sun altitude
Rises 06:20:47 0° 26° (NNE) 3,247 6.4 -13.6°
Reaches altitude 10° 06:23:55 10° 46° (NE) 2,315 5.9 -13.1°
Maximum altitude 06:27:14 17° 87° (E) 1,856 6.1 -12.6°
Drops below altitude 10° 06:30:33 10° 128° (SE) 2,304 6.6 -12.1°
Sets 06:33:38 0° 148° (SSE) 3,225 7.0 -11.7°
